Volver al catálogo

YUNYAO-1 56

ActivoMeteoSSO
NORAD 63292·PAYLOAD·🇨🇳 China
Este nombre de satélite aún no ha sido confirmado por fuentes oficiales.

Lanzado Mar 17, 2025 desde Jiuquan Satellite Launch Center

Loading…

Próximos Pases (próximas 24 horas)

TLE

ActualizadoSource: Space-Track

Época: Sep 14, 2026, 22:14 UTC

1 63292U 25055B   26257.92680110  .00006997  00000-0  39782-3 0  9991
2 63292  97.6630  38.9883 0035140 202.6149 157.3535 15.12674311 82641

Sigue YUNYAO-1 56 en tiempo real con AllMySat

Download on the App Store